Temperature
13 15 15 16 16 16 16 16 15 15 14 13 12 12 11 11 11 10 10 10 9 9 8 8 8 7 7 7 7 6 6 6 5 5 5 5 5 6 7 8 8 8 8
13 14 15 15 15 15 15 15 14 14 13 13 12 12 11 11 11 10 10 10 10 9 9 9 8 8 7 8 7 7 6 6 6 4 4 4 6 6 5 6 7 8 8
13 13 14 14 14 14 14 14 14 13 13 12 12 12 11 11 11 10 10 10 10 9 9 9 8 8 8 8 8 7 6 6 5 4 4 3 5 6 5 5 5 5 6
12 13 14 14 14 14 13 13 13 13 12 12 12 11 11 11 10 10 10 10 10 9 9 9 8 8 8 8 8 7 6 5 5 4 4 3 3 2 3 4 4 4 4
12 12 13 13 13 13 13 12 12 12 12 11 11 11 10 10 10 10 9 9 9 9 8 8 8 8 7 7 7 7 6 5 5 5 4 3 2 1 1 2 3 4 3
11 12 12 12 12 12 12 12 12 11 11 11 11 10 10 9 9 9 8 8 8 8 8 7 7 7 7 7 7 6 6 6 5 5 4 3 2 2 1 1 2 3 3
11 11 12 12 12 12 11 11 11 11 11 10 10 9 9 8 8 8 8 7 7 7 7 7 7 7 6 6 6 6 6 5 5 4 4 3 2 2 1 1 1 2 2
11 11 11 11 11 11 11 11 11 10 10 10 9 9 8 8 7 7 7 7 6 6 6 6 6 6 6 6 6 5 5 5 5 4 4 3 3 2 1 1 0 0 1
11 11 11 11 11 11 10 10 10 10 9 9 8 8 7 7 6 6 6 6 6 6 6 6 6 6 5 5 5 5 5 4 4 4 3 2 2 2 1 0 -0 -1 -0
11 10 10 10 10 10 10 10 9 9 8 8 7 7 6 6 6 6 5 5 5 5 5 5 5 5 5 5 4 4 4 3 3 3 2 2 1 1 0 -0 -1 -1 -2
11 10 10 10 10 10 9 9 9 8 8 7 6 6 6 5 5 5 5 5 5 4 4 4 4 4 4 4 3 3 2 2 2 1 1 1 0 -0 -1 -1 -1 -1 -2
10 10 9 9 9 9 9 8 8 7 7 6 6 6 5 5 5 4 4 4 4 4 4 3 3 3 3 3 2 2 1 1 1 0 -0 -0 -1 -1 -1 -1 -2 -2 -2
9 9 9 9 8 8 8 8 7 7 6 6 5 5 5 4 4 4 4 4 3 3 3 3 3 2 2 2 2 1 0 -0 -0 -1 -1 -1 -2 -2 -2 -2 -2 -2 -2
9 8 8 8 8 8 7 7 6 6 5 5 5 4 4 4 4 3 3 3 3 3 3 2 2 2 1 1 1 0 -0 -1 -1 -1 -2 -2 -2 -2 -3 -3 -3 -3 -3
8 8 8 8 7 7 7 6 5 5 5 4 4 4 4 3 3 3 3 3 3 2 2 2 1 1 1 0 -0 -1 -1 -2 -2 -2 -3 -3 -3 -3 -3 -3 -3 -3 -3
7 8 7 7 7 6 6 5 5 4 4 4 4 3 3 3 3 2 2 2 2 1 1 1 0 -0 -0 -1 -1 -2 -3 -3 -3 -3 -3 -4 -4 -3 -3 -3 -3 -3 -3
7 7 7 6 6 5 5 4 4 4 4 4 3 3 2 2 2 2 1 1 0 0 -0 -0 -1 -1 -1 -2 -2 -3 -4 -4 -4 -4 -4 -4 -4 -4 -4 -4 -4 -3 -3
7 6 6 5 5 5 4 4 4 3 3 3 3 2 2 1 1 1 0 -0 -1 -1 -1 -2 -2 -2 -2 -2 -3 -4 -4 -4 -4 -4 -4 -4 -4 -4 -4 -4 -4 -4 -4
6 6 5 5 4 4 4 3 3 3 2 2 2 1 1 0 0 -0 -1 -1 -1 -2 -2 -2 -3 -3 -3 -3 -4 -5 -5 -5 -5 -5 -4 -4 -4 -4 -4 -4 -4 -4 -4
5 5 5 4 4 3 3 3 2 2 2 1 1 1 0 -0 -1 -1 -1 -2 -2 -3 -3 -3 -4 -4 -4 -4 -5 -5 -5 -5 -5 -5 -4 -4 -4 -4 -4 -4 -4 -4 -4
5 4 4 4 3 3 3 2 2 1 1 1 0 0 -0 -1 -1 -1 -2 -2 -3 -3 -4 -4 -5 -5 -5 -5 -5 -5 -5 -5 -5 -5 -4 -4 -4 -4 -4 -4 -4 -4 -3
4 4 4 3 3 3 2 2 1 1 1 0 -0 -0 -1 -1 -2 -2 -2 -3 -4 -4 -5 -5 -5 -5 -6 -6 -6 -5 -5 -5 -5 -5 -5 -5 -4 -4 -4 -4 -4 -4 -4
3 3 3 3 3 2 1 1 1 0 0 -0 -0 -1 -1 -2 -2 -3 -3 -4 -5 -5 -6 -6 -6 -6 -6 -6 -6 -6 -6 -6 -5 -5 -5 -5 -4 -4 -4 -4 -4 -4 -4
3 3 2 2 2 2 1 1 1 0 -0 -1 -1 -2 -2 -2 -3 -4 -4 -5 -6 -6 -6 -6 -6 -6 -6 -6 -6 -6 -6 -6 -5 -5 -5 -5 -4 -4 -4 -4 -4 -5 -5
3 2 2 2 1 1 1 1 0 -0 -1 -1 -2 -2 -3 -3 -4 -4 -5 -6 -6 -7 -7 -7 -6 -6 -6 -6 -6 -6 -6 -6 -5 -5 -5 -5 -5 -5 -5 -5 -5 -5 -5
2 2 1 1 1 1 1 0 -0 -1 -2 -2 -2 -3 -4 -4 -5 -5 -6 -6 -6 -6 -7 -7 -7 -7 -7 -7 -6 -6 -6 -6 -6 -5 -5 -5 -6 -6 -6 -6 -6 -6 -6
Wind_Speed
10 10 12 12 13 12 11 8 6 5 4 4 4 4 5 6 7 10 13 14 15 15 15 13 14 13 11 13 15 14 14 13 12 11 12 15 18 19 17 16 17 19 23
11 11 13 13 14 13 11 10 8 6 4 3 2 2 3 4 5 7 10 12 14 15 14 14 12 12 11 14 15 14 12 11 9 8 9 10 11 13 14 14 15 16 16
11 11 12 13 13 12 11 9 8 6 4 3 2 1 2 3 3 5 6 8 11 13 14 15 14 12 12 12 14 14 15 13 12 11 10 8 8 9 8 11 12 13 13
10 10 11 12 11 10 9 9 8 7 5 3 1 1 2 3 3 4 5 6 8 10 12 13 14 13 12 13 14 14 13 14 13 12 12 14 11 10 10 9 10 13 14
9 10 10 10 9 8 8 8 8 8 5 3 1 1 3 4 4 5 6 6 6 7 9 11 11 12 11 14 14 14 14 13 14 13 12 14 14 16 13 16 16 15 14
9 9 9 8 8 7 7 7 7 7 5 4 2 2 3 5 6 6 6 6 5 5 6 8 9 10 11 12 13 14 16 15 16 15 14 14 13 12 14 17 18 18 16
10 10 9 8 7 7 6 6 6 6 5 4 3 3 3 5 6 6 6 7 6 6 7 7 8 9 10 12 12 13 15 16 17 17 15 15 16 16 16 17 19 21 18
10 9 8 7 6 6 5 5 5 5 4 4 3 3 3 4 4 6 6 7 7 7 9 9 9 11 12 12 12 12 14 15 16 18 19 16 16 16 16 17 17 19 20
11 10 8 6 5 5 4 3 3 3 3 4 4 4 4 4 5 6 7 6 7 8 10 10 11 12 12 13 13 12 15 15 16 17 18 17 16 16 16 16 16 17 20
11 9 8 6 4 3 2 2 2 2 3 4 4 4 5 5 6 7 8 9 10 10 11 12 13 14 14 14 14 14 15 17 17 15 18 18 16 16 15 16 16 17 18
10 9 7 5 4 3 2 1 2 2 3 4 5 5 6 6 8 8 9 10 11 12 13 14 14 15 16 16 16 16 17 18 18 18 19 20 20 17 16 16 16 16 17
8 7 6 5 4 2 1 1 2 3 4 5 6 7 7 8 9 10 11 12 13 13 14 15 16 16 17 17 18 19 18 19 20 20 20 21 17 20 18 16 18 17 18
7 7 6 4 2 1 1 2 3 4 5 6 7 8 9 10 11 12 13 13 14 15 16 16 17 17 17 18 18 19 19 20 20 20 20 20 20 21 18 18 18 16 16
7 6 5 3 1 0 2 3 4 4 5 6 8 9 10 11 12 13 14 14 15 16 17 17 17 17 17 17 18 18 18 19 20 20 20 20 20 20 20 18 19 17 17
7 5 3 2 0 1 2 4 5 5 6 8 9 10 11 12 13 14 15 15 16 16 17 18 18 18 15 14 14 14 17 18 19 20 20 21 23 25 21 17 15 15 15
6 4 2 1 1 2 3 5 6 6 7 9 10 11 12 13 13 15 16 16 17 17 18 18 19 19 16 20 25 22 20 18 18 18 19 20 21 24 28 30 28 24 17
5 3 2 1 2 3 4 6 7 8 9 10 12 12 12 13 15 16 17 17 18 18 18 18 19 20 20 24 26 26 22 21 19 19 18 16 16 21 16 21 26 26 29
4 2 1 1 2 4 5 7 8 9 10 12 12 13 13 14 15 16 17 18 17 18 18 19 20 20 21 24 26 26 22 19 19 19 19 19 18 17 17 14 15 17 18
2 1 1 2 4 5 6 8 9 10 11 13 13 14 14 15 16 17 18 18 18 18 18 18 20 20 21 24 25 25 17 16 18 18 18 19 19 23 25 18 16 17 15
2 1 2 4 5 6 7 9 11 12 13 14 14 15 15 16 17 18 19 18 17 18 18 19 19 20 21 23 24 25 15 16 16 16 16 21 22 24 25 18 16 17 15
2 2 4 5 6 7 8 10 12 13 14 14 15 16 16 17 18 18 17 18 17 18 18 19 18 18 20 22 23 24 15 15 16 14 14 13 22 25 26 24 17 19 18
3 3 5 6 7 8 9 12 14 14 14 15 16 17 17 16 15 17 18 17 18 18 18 17 18 15 16 18 20 24 24 22 17 15 14 15 24 26 27 22 20 23 20
4 4 6 8 9 9 10 13 15 15 15 16 17 17 17 16 16 17 17 17 15 14 15 15 16 16 15 16 23 24 25 26 18 16 22 25 27 25 19 19 22 18 11
5 6 8 10 12 12 12 14 15 14 15 17 17 16 17 17 16 14 14 14 14 15 15 15 16 16 16 15 14 15 17 20 18 16 18 23 23 18 17 17 13 9 9
6 7 9 11 13 14 14 15 15 15 16 17 16 16 15 16 16 15 14 15 15 16 17 16 16 17 18 19 25 22 17 16 16 17 13 11 11 10 9 9 9 8 7
8 9 11 13 14 15 16 16 15 15 15 15 16 14 14 14 14 15 16 16 18 24 25 25 24 20 23 29 30 29 28 28 25 18 12 11 11 11 10 9 9 8 7
Wind_Direction
75 67 67 70 73 74 79 87 104 127 151 166 190 215 234 240 243 245 248 248 248 247 246 250 256 254 250 252 255 257 260 261 264 272 276 269 260 255 252 251 251 250 247
92 79 75 72 72 73 74 79 88 105 133 155 177 222 254 261 262 257 254 253 251 250 248 249 253 254 252 254 257 256 257 260 252 253 278 284 278 253 243 246 246 249 248
105 94 84 79 75 70 69 74 79 90 106 138 161 186 238 259 259 262 263 262 258 255 251 253 255 257 254 256 257 254 251 254 254 238 245 267 275 299 255 240 244 246 248
114 105 97 87 79 75 76 78 80 82 89 116 157 227 277 295 305 305 293 287 274 265 260 258 258 259 256 256 257 255 253 252 256 253 238 244 262 275 284 259 247 249 252
128 117 106 99 91 85 83 83 84 79 79 83 78 299 301 308 312 311 304 303 292 278 270 266 263 261 260 259 260 259 254 249 250 252 251 249 251 252 258 273 274 266 256
145 131 122 114 103 96 90 87 86 79 72 69 55 358 330 322 319 321 319 316 308 297 286 277 269 266 264 263 262 261 258 253 252 251 250 251 250 249 252 264 271 272 269
161 152 144 133 118 104 93 88 83 73 60 51 33 6 336 323 319 321 319 316 312 308 307 294 281 275 270 268 266 263 260 257 254 253 252 251 250 253 257 265 272 275 274
172 163 155 144 130 115 99 85 73 60 43 27 12 359 345 328 323 320 314 310 307 306 307 299 289 284 280 275 270 267 263 261 258 257 255 255 254 253 252 256 267 275 276
177 172 164 155 141 126 105 80 62 47 29 10 353 344 340 329 321 315 309 305 302 302 300 297 293 289 285 281 278 271 269 267 264 262 261 258 258 256 255 255 255 261 274
179 176 171 163 151 136 115 79 48 26 6 351 343 328 324 321 314 309 308 306 305 302 299 298 295 292 289 285 281 277 274 273 270 267 265 263 261 259 256 254 254 252 258
179 177 173 166 157 144 122 65 26 4 349 338 327 319 319 316 311 307 306 306 304 303 300 298 296 294 292 290 286 281 279 277 275 271 268 266 265 264 262 258 255 253 252
173 172 169 164 158 142 89 22 2 348 337 326 317 315 314 311 308 308 308 306 304 302 300 298 295 293 291 290 288 287 284 281 278 276 274 271 270 266 264 261 258 256 253
162 162 162 160 150 124 10 352 345 336 328 320 313 312 311 311 310 309 308 306 303 301 300 297 295 293 291 290 288 287 286 283 281 280 277 276 273 270 266 263 261 259 258
158 157 156 149 132 21 342 334 330 326 321 314 310 309 311 310 309 307 305 303 302 300 299 297 294 292 289 285 284 284 283 283 281 278 276 274 271 269 268 267 264 263 261
157 153 149 140 107 334 326 325 320 317 313 309 307 308 309 308 305 304 303 302 300 298 297 295 293 291 288 281 277 276 277 276 277 276 274 271 269 266 266 264 262 258 258
159 151 149 163 294 316 317 314 311 311 308 305 305 308 306 305 304 303 303 302 301 299 298 296 294 292 289 287 289 289 287 283 280 279 278 275 273 271 270 270 268 263 258
162 165 185 232 296 311 309 308 309 307 305 303 304 304 304 303 303 304 302 302 302 300 299 297 295 293 292 293 293 292 291 288 286 285 284 282 278 277 271 271 273 274 272
166 179 212 266 293 298 301 302 302 302 301 301 302 304 304 302 303 303 302 302 302 301 299 298 297 296 294 295 296 297 295 289 286 285 284 283 281 277 274 268 266 266 266
163 187 251 280 288 293 299 300 298 300 300 301 304 306 304 302 302 302 303 304 303 300 300 299 298 297 297 298 299 298 295 290 288 286 283 282 281 280 281 278 272 271 268
168 226 269 280 284 294 299 296 298 300 301 305 305 304 303 301 301 301 302 302 301 299 300 298 297 296 297 298 299 299 295 293 291 288 284 282 281 282 282 279 275 273 273
209 259 276 281 288 296 297 295 299 300 304 304 302 301 300 300 300 300 300 301 300 299 299 298 298 297 297 298 298 298 297 294 293 292 289 285 285 286 286 284 278 275 275
242 267 280 288 294 296 296 295 298 302 304 302 300 299 300 300 299 299 300 300 301 301 301 301 302 301 300 299 299 299 299 299 298 295 293 289 289 289 288 287 282 283 283
260 273 284 292 296 296 294 294 300 305 304 302 301 301 301 300 299 299 300 301 301 299 301 301 301 302 303 302 302 303 303 302 298 292 291 292 294 294 292 286 285 286 282
270 280 286 291 297 301 300 297 300 302 301 300 301 301 301 301 300 298 296 297 298 298 298 299 300 302 303 304 305 304 304 302 299 295 293 294 293 288 284 284 284 279 273
277 280 283 289 294 300 301 301 302 303 300 300 300 300 300 299 300 299 296 295 291 289 294 296 298 301 302 302 305 306 304 303 299 301 297 294 293 289 286 283 278 275 271
281 283 285 290 295 299 299 301 302 301 299 299 300 300 301 300 299 300 299 289 286 291 292 292 294 296 296 302 305 306 306 306 305 305 299 298 297 295 293 290 286 278 269
Height
1529 1528 1527 1527 1526 1526 1526 1526 1527 1527 1528 1528 1529 1529 1530 1530 1531 1531 1531 1531 1531 1531 1531 1531 1531 1530 1529 1528 1527 1526 1524 1523 1522 1518 1514 1510 1509 1505 1502 1502 1502 1501 1500
1531 1530 1529 1529 1529 1528 1528 1528 1528 1529 1529 1529 1529 1529 1529 1529 1529 1528 1528 1528 1527 1527 1526 1525 1525 1524 1523 1521 1521 1520 1517 1516 1516 1513 1510 1505 1502 1498 1494 1492 1491 1491 1490
1532 1531 1531 1531 1531 1530 1530 1530 1530 1530 1530 1530 1529 1529 1529 1528 1528 1527 1526 1525 1524 1523 1522 1521 1520 1518 1517 1515 1514 1513 1511 1509 1509 1506 1505 1502 1496 1492 1488 1484 1482 1481 1480
1532 1532 1532 1532 1532 1532 1532 1532 1532 1531 1531 1530 1530 1529 1528 1528 1527 1525 1524 1523 1521 1520 1518 1517 1515 1514 1512 1510 1508 1507 1505 1502 1500 1500 1496 1494 1492 1489 1480 1478 1476 1472 1470
1532 1532 1532 1532 1533 1533 1533 1533 1532 1532 1531 1530 1530 1529 1527 1526 1525 1523 1521 1520 1518 1516 1514 1512 1511 1509 1507 1505 1503 1501 1498 1496 1493 1491 1489 1487 1483 1480 1476 1468 1468 1467 1463
1531 1532 1532 1533 1533 1533 1533 1533 1532 1532 1531 1530 1529 1527 1526 1524 1522 1520 1518 1516 1514 1512 1510 1508 1506 1504 1501 1499 1497 1494 1491 1489 1486 1483 1481 1479 1476 1472 1469 1462 1458 1456 1454
1530 1531 1532 1532 1533 1533 1533 1532 1532 1531 1530 1528 1527 1525 1523 1521 1519 1517 1515 1513 1511 1508 1506 1503 1501 1498 1496 1493 1490 1487 1484 1481 1478 1475 1472 1469 1466 1464 1461 1456 1450 1446 1443
1529 1530 1530 1531 1531 1532 1532 1531 1530 1529 1528 1526 1524 1522 1520 1518 1516 1514 1512 1509 1507 1504 1502 1499 1496 1493 1490 1487 1483 1479 1476 1473 1470 1466 1464 1460 1457 1454 1451 1447 1444 1436 1431
1526 1527 1529 1529 1530 1530 1530 1529 1528 1527 1526 1524 1522 1520 1517 1515 1513 1511 1508 1505 1503 1500 1497 1493 1490 1487 1483 1480 1476 1471 1468 1464 1460 1457 1454 1450 1447 1444 1441 1438 1436 1432 1423
1524 1525 1526 1527 1527 1528 1527 1527 1526 1524 1523 1521 1518 1516 1514 1512 1509 1507 1504 1501 1498 1495 1491 1487 1484 1480 1476 1472 1467 1463 1459 1455 1451 1447 1443 1440 1437 1434 1431 1428 1425 1422 1417
1521 1522 1524 1525 1525 1525 1525 1524 1523 1521 1519 1517 1515 1513 1510 1508 1505 1502 1499 1496 1492 1488 1484 1480 1476 1472 1467 1463 1459 1454 1450 1445 1441 1437 1433 1429 1427 1423 1420 1417 1414 1411 1408
1518 1519 1521 1522 1522 1522 1522 1521 1519 1518 1516 1513 1511 1508 1506 1503 1500 1497 1494 1490 1486 1481 1477 1472 1467 1463 1458 1454 1449 1444 1440 1435 1430 1426 1423 1419 1416 1412 1410 1407 1403 1400 1398
1515 1516 1518 1519 1519 1519 1519 1517 1516 1514 1512 1509 1507 1504 1501 1498 1495 1491 1487 1483 1478 1473 1469 1464 1458 1453 1448 1443 1439 1434 1429 1424 1419 1415 1411 1407 1405 1401 1398 1396 1392 1389 1387
1512 1514 1515 1516 1516 1516 1515 1514 1512 1510 1508 1505 1502 1499 1496 1493 1489 1485 1480 1475 1470 1465 1460 1455 1449 1443 1438 1433 1428 1423 1417 1412 1407 1403 1399 1395 1392 1389 1387 1384 1381 1379 1376
1510 1511 1512 1513 1513 1513 1511 1510 1508 1506 1503 1500 1497 1494 1490 1486 1482 1477 1473 1467 1462 1456 1451 1445 1439 1434 1428 1422 1417 1411 1406 1400 1395 1391 1388 1384 1381 1378 1376 1373 1370 1368 1365
1508 1509 1510 1510 1510 1509 1508 1506 1504 1502 1499 1496 1492 1488 1484 1480 1475 1470 1465 1459 1453 1448 1442 1436 1429 1423 1418 1413 1407 1402 1396 1391 1386 1381 1377 1374 1371 1367 1364 1362 1360 1359 1355
1506 1507 1507 1507 1506 1505 1504 1502 1500 1497 1494 1491 1487 1482 1478 1473 1468 1462 1457 1451 1445 1439 1433 1427 1420 1414 1408 1403 1397 1392 1387 1382 1376 1372 1367 1364 1360 1358 1354 1351 1349 1347 1345
1503 1504 1504 1503 1502 1501 1500 1498 1495 1492 1489 1485 1480 1476 1471 1465 1460 1454 1449 1443 1437 1430 1424 1418 1412 1405 1399 1394 1388 1383 1378 1372 1367 1363 1359 1355 1351 1348 1345 1341 1338 1335 1333
1501 1501 1501 1500 1499 1497 1495 1493 1490 1487 1483 1479 1474 1469 1464 1458 1452 1447 1441 1435 1428 1421 1415 1409 1402 1395 1389 1385 1379 1375 1369 1363 1359 1355 1351 1347 1343 1339 1337 1333 1329 1326 1323
1498 1497 1497 1496 1495 1493 1491 1488 1485 1481 1477 1472 1468 1463 1457 1451 1445 1439 1433 1426 1420 1413 1406 1399 1394 1387 1381 1376 1371 1367 1362 1356 1351 1347 1342 1339 1335 1331 1328 1325 1321 1317 1314
1495 1494 1494 1492 1491 1489 1486 1482 1479 1475 1471 1466 1460 1455 1450 1444 1438 1431 1425 1418 1411 1404 1398 1391 1385 1379 1374 1368 1364 1360 1356 1350 1344 1339 1334 1330 1327 1323 1320 1317 1313 1309 1306
1491 1491 1490 1488 1486 1484 1481 1477 1473 1469 1464 1459 1453 1448 1442 1436 1430 1423 1417 1410 1404 1396 1389 1383 1377 1371 1367 1362 1357 1353 1348 1343 1337 1331 1326 1322 1318 1314 1311 1307 1304 1301 1298
1488 1487 1486 1484 1482 1479 1475 1471 1466 1462 1456 1451 1446 1440 1434 1428 1422 1416 1409 1402 1396 1390 1383 1376 1369 1364 1359 1354 1350 1345 1340 1335 1330 1324 1319 1314 1310 1306 1301 1298 1295 1293 1290
1484 1483 1481 1478 1476 1473 1469 1465 1459 1454 1449 1443 1438 1432 1426 1420 1414 1408 1401 1395 1389 1383 1377 1370 1364 1357 1352 1347 1342 1337 1332 1326 1321 1316 1311 1306 1302 1297 1293 1290 1287 1284 1282
1480 1478 1476 1473 1469 1466 1462 1458 1453 1447 1441 1436 1430 1424 1418 1412 1405 1400 1394 1388 1382 1377 1371 1364 1358 1351 1344 1340 1336 1331 1324 1319 1314 1309 1303 1299 1294 1290 1286 1283 1280 1278 1275
1475 1473 1470 1467 1463 1459 1455 1450 1446 1440 1434 1428 1422 1416 1410 1404 1397 1391 1384 1379 1374 1369 1363 1358 1352 1345 1339 1333 1328 1322 1317 1312 1307 1302 1297 1292 1288 1284 1280 1277 1274 1272 1270